Cork, Ireland

8:55 AM IST on May 27, 2017 (GMT +0100)
Cork

Weather History for EICK - October, 2011

Change the Weather History Date:

Sunday, October 30, 2011

  Actual Average Record
Temperature  
Mean Temperature 54 °F -  
Max Temperature 56 °F 50 °F 59 °F (2014)
Min Temperature 51 °F 40 °F 37 °F (2000)
Degree Days  
Heating Degree Days 12    
Growing Degree Days 4 (Base 50)    
Moisture  
Dew Point 54 °F    
Average Humidity 100    
Maximum Humidity 100    
Minimum Humidity 95    
Precipitation  
Precipitation 0.04 in 0.14 in - ()
Sea Level Pressure  
Sea Level Pressure 29.85 in    
Wind  
Wind Speed 9 mph ()    
Max Wind Speed 15 mph    
Max Gust Speed -    
Visibility 2.6 miles    
Events Fog , Rain    
Averages and records for this station are not official NWS values.
T = Trace of Precipitation, MM = Missing Value Source: Averaged Metar Reports

Daily Weather History Graph

Daily Weather History Graph

Search for Another Location

Airport or City:

Trip Planner

Search our weather history database for the weather conditions in past years. The results will help you decide how hot, cold, wet, or windy it might be!

Date:

Astronomy

Oct. 30, 2011 Rise Set
Actual Time 7:24 AM GMT 5:10 PM GMT
Civil Twilight 6:48 AM GMT 5:45 PM GMT
Nautical Twilight 6:09 AM GMT 6:25 PM GMT
Astronomical Twilight 5:30 AM GMT 7:03 PM GMT
Moon 11:55 AM GMT (10/30) 8:01 PM GMT (10/30)
Length of Visible Light 10h 56m
Length of Day
9h 46m
Waxing Crescent, 18% of the Moon is Illuminated
Oct 30
Waxing Crescent
Nov 2
First Quarter
Nov 10
Full
Nov 18
Last Quarter
Nov 25
New

Hourly Weather History & Observations

Time (GMT) Temp. Dew Point Humidity Pressure Visibility Wind Dir Wind Speed Gust Speed Precip Events Conditions
12:00 AM 51.8 °F 51.8 °F 100% 29.86 in 6.2 mi SSW 9.2 mph - N/A   Mostly Cloudy
12:30 AM 51.8 °F 51.8 °F 100% 29.86 in 6.2 mi SW 11.5 mph - N/A   Mostly Cloudy
1:00 AM 52 °F 52 °F 99% 29.89 in 10 mi SW 8.9 mph - -   Mostly Cloudy
1:00 AM 51.8 °F 51.8 °F 100% 29.89 in 6.2 mi SW 9.2 mph - N/A   Mostly Cloudy
1:30 AM 51.8 °F 51.8 °F 100% 29.89 in 6.2 mi SW 10.4 mph - N/A   Mostly Cloudy
1:00 AM 51.8 °F 51.8 °F 100% 29.89 in 6.2 mi SW 6.9 mph - N/A   Mostly Cloudy
1:30 AM 51.8 °F 51.8 °F 100% 29.89 in 6.2 mi SSW 6.9 mph - N/A   Mostly Cloudy
2:00 AM 51.8 °F 51.8 °F 100% 29.89 in 6.2 mi SW 8.1 mph - N/A   Mostly Cloudy
2:30 AM 51.8 °F 51.8 °F 100% 29.89 in 6.2 mi SW 8.1 mph - N/A   Mostly Cloudy
3:00 AM 51.8 °F 51.8 °F 100% 29.86 in 6.2 mi SSW 8.1 mph - N/A   Mostly Cloudy
3:30 AM 51.8 °F 51.8 °F 100% 29.86 in 6.2 mi SSW 6.9 mph - N/A   Mostly Cloudy
4:00 AM 51.8 °F 51.8 °F 100% 29.86 in 6.2 mi SSW 10.4 mph - N/A   Mostly Cloudy
4:30 AM 51.8 °F 51.8 °F 100% 29.86 in 6.2 mi SW 9.2 mph - N/A   Mostly Cloudy
5:00 AM 51.8 °F 51.8 °F 100% 29.86 in 6.2 mi SSW 5.8 mph - N/A   Mostly Cloudy
5:30 AM 51.8 °F 51.8 °F 100% 29.89 in 6.2 mi SW 9.2 mph - N/A   Mostly Cloudy
6:00 AM 53 °F 52 °F 95% 29.90 in 10 mi SW 8.9 mph - -   Mostly Cloudy
6:00 AM 51.8 °F 51.8 °F 100% 29.89 in 6.2 mi SW 8.1 mph - N/A   Mostly Cloudy
6:30 AM 53.6 °F 53.6 °F 100% 29.89 in 6.2 mi SSW 10.4 mph - N/A   Mostly Cloudy
7:00 AM 53.6 °F 53.6 °F 100% 29.89 in 6.2 mi SSW 10.4 mph - N/A   Mostly Cloudy
7:30 AM 53.6 °F 53.6 °F 100% 29.89 in 3.1 mi SSW 10.4 mph - N/A   Light Drizzle
8:00 AM 53.6 °F 53.6 °F 100% 29.89 in 0.4 mi SSW 10.4 mph - N/A Fog Fog
8:30 AM 53.6 °F 53.6 °F 100% 29.89 in 0.4 mi South 12.7 mph - N/A Fog Fog
9:00 AM 55.4 °F 55.4 °F 100% 29.89 in 0.4 mi South 10.4 mph - N/A Fog Fog
9:30 AM 55.4 °F 55.4 °F 100% 29.89 in 0.5 mi South 12.7 mph - N/A Fog , Rain Light Rain
10:00 AM 55.4 °F 55.4 °F 100% 29.89 in 0.5 mi South 11.5 mph - N/A Fog , Rain Light Rain
10:30 AM 55.4 °F 55.4 °F 100% 29.89 in 0.4 mi South 12.7 mph - N/A Fog , Rain Light Rain
11:00 AM 55.4 °F 55.4 °F 100% 29.89 in 0.3 mi South 12.7 mph - N/A Fog , Rain Light Rain
11:30 AM 55.4 °F 55.4 °F 100% 29.86 in 0.2 mi South 15.0 mph - N/A Fog Fog
12:00 PM 56 °F 56 °F 100% 29.88 in 0 mi South 13.4 mph - - Rain Light Rain
12:00 PM 55.4 °F 55.4 °F 100% 29.86 in 0.2 mi South 13.8 mph - N/A Fog , Rain Light Rain
12:30 PM 55.4 °F 55.4 °F 100% 29.86 in 0.1 mi SSW 15.0 mph - N/A Fog , Rain Light Rain
1:00 PM 55.4 °F 55.4 °F 100% 29.86 in 0.1 mi SSW 13.8 mph - N/A Fog Light Drizzle
1:30 PM 57.2 °F 57.2 °F 100% 29.86 in 0.1 mi SSW 11.5 mph - N/A Fog Light Drizzle
2:00 PM 57.2 °F 57.2 °F 100% 29.83 in 0.2 mi SSW 11.5 mph - N/A Fog Light Drizzle
2:30 PM 55.4 °F 55.4 °F 100% 29.83 in 0.1 mi SSW 12.7 mph - N/A Fog Light Drizzle
3:00 PM 57.2 °F 57.2 °F 100% 29.83 in 0.1 mi SSW 10.4 mph - N/A Fog , Rain Light Rain
3:30 PM 55.4 °F 55.4 °F 100% 29.83 in 0.1 mi SSW 11.5 mph - N/A Fog , Rain Light Rain
4:00 PM 55.4 °F 55.4 °F 100% 29.83 in 0.1 mi SSW 12.7 mph - N/A Fog Fog
4:30 PM 55.4 °F 55.4 °F 100% 29.83 in 0.1 mi SSW 11.5 mph - N/A Fog Fog
5:00 PM 55.4 °F 55.4 °F 100% 29.83 in 0.1 mi SSW 10.4 mph - N/A Fog Fog
5:30 PM 55.4 °F 55.4 °F 100% 29.83 in 0.2 mi SSW 9.2 mph - N/A Fog Fog
6:00 PM 56 °F 56 °F 100% 29.82 in 0 mi South 11.2 mph - - Fog Partial Fog
6:00 PM 55.4 °F 55.4 °F 100% 29.80 in 0.2 mi South 10.4 mph - N/A Fog Fog
6:30 PM 55.4 °F 55.4 °F 100% 29.80 in 0.2 mi South 11.5 mph - N/A Fog Fog
7:00 PM 55.4 °F 55.4 °F 100% 29.80 in 0.2 mi South 10.4 mph - N/A Fog Fog
7:30 PM 55.4 °F 55.4 °F 100% 29.80 in 0.2 mi South 9.2 mph - N/A Fog Fog
8:00 PM 55.4 °F 55.4 °F 100% 29.77 in 0.2 mi SSW 9.2 mph - N/A Fog Fog
8:30 PM 55.4 °F 55.4 °F 100% 29.77 in 0.2 mi South 10.4 mph - N/A Fog Fog
9:00 PM 55.4 °F 55.4 °F 100% 29.77 in 0.2 mi SSW 9.2 mph - N/A Fog Fog
9:30 PM 55.4 °F 55.4 °F 100% 29.77 in 0.2 mi South 10.4 mph - N/A Fog Fog
10:00 PM 55.4 °F 55.4 °F 100% 29.74 in 0.2 mi South 12.7 mph - N/A Fog Fog
10:30 PM 55.4 °F 55.4 °F 100% 29.74 in 0.2 mi SSW 15.0 mph - N/A Fog Fog